www.pogodaiklimat.ru

Погода и климат >> Архив погоды >> Россия >> Эвенкия >> Тура


ПОГОДА в Туре

АРХИВ ПОГОДЫ в Туре

Время (UTC), дата Ветер
(напр.,м/с)
 
Видим.   Явления Облачность Т
(С)
Тd
(С)
f
(%)
Тe
(С)
Тes
(С)
Комфортность P
(гПа)
Po
(гПа)
Тmin
(С)
Tmax
(С)
R
(мм)
R24
(мм)
S
(см)
03 16.10 В 4 2000 м слабый ливневой снег {метель} 10/10 600 м
[Cb cap]
-6.0 -7.9 86 -13 -13 1021.3 996.8
06 16.10 В 3 2000 м слабый ливневой снег {метель} 10/10 600 м
[Cb cap]
-3.7 -5.5 87 -9 -9 1020.2 995.9
09 16.10 В 3 2000 м слабый ливневой снег {метель} 10/10 600 м
[Cb cap]
-2.6 -4.2 89 -8 -8 1019.1 994.9
12 16.10 В 3 н/о слабый ливневой снег {метель} 10/10 600 м
[Cb cap]
-3.2 -4.6 90 -9 -9 1018.5 994.2 -2.3 3
15 16.10 В 3 н/о слабый ливневой снег {метель} 10/10 600 м
[Cb cap]
-3.6 -5.1 89 -9 -9 1017.9 993.6
18 16.10 В 3 н/о слабый ливневой снег {метель} 10/10 600 м
[Cb cap]
-4.0 -5.5 89 -9 -9 1016.9 992.5
21 16.10 В 3 н/о слабый ливневой снег {метель} 10/10 600 м
[Cb cap]
-4.8 -5.8 93 -10 -10 1015.6 991.4
00 17.10 В 3 2000 м слабый ливневой снег {метель} 10/10 600 м
[Cb cap]
-5.2 -6.2 93 -11 -11 1015.1 990.8 -5.2 3 15
03 17.10 В 2 10 км слабый ливневой снег {метель} 10/8 600 м
[Cb cap Ci fib]
-5.4 -7.6 84 -10 -10 1015.3 991.0 -6.5
06 17.10 штиль 0 4000 м слабый ливневой снег {метель} 10/10 600 м
[Cb cap]
-4.0 -5.9 87 -5 -5 1015.3 991.1
09 17.10 З 3 20 км {ливн. осадки} 3/3 600 м
[Cb cap]
-3.9 -10.6 60 -9 -9 1017.3 992.9
12 17.10 СЗ 1 н/о {ливн. осадки} ясно -8.2 -13.4 66 -10 -10 1019.6 994.9 -2.9 0.4
15 17.10 З 2 н/о ясно -12.0 -15.5 75 -17 -17 1022.0 996.9
18 17.10 З 1 н/о 4/0
[Ac trans Ci fib]
-13.8 -15.8 85 -16 -16 1023.1 997.7
21 17.10 СЗ 2 н/о 4/0
[Ac trans Ci fib]
-16.9 -18.8 85 -22 -22 1024.1 998.4
00 18.10 СЗ 2 20 км ясно -18.1 -20.0 85 -24 -24 1025.3 999.5 -18.1 14
03 18.10 СЗ 1 20 км 6/0
[Ci fib]
-16.0 -18.7 80 -19 -18 1026.0 1000.4 -24.0
06 18.10 З 1 20 км 8/0
[Ci fib]
-10.8 -17.1 60 -13 -12 1025.6 1000.5
09 18.10 З 1 20 км 8/0
[Ci fib]
-10.1 -17.4 55 -12 -12 1026.1 1001.1
12 18.10 штиль 0 н/о 8/0
[Ci fib]
-15.9 -19.3 75 -16 -16 1028.3 1002.5 -10.1
15 18.10 СЗ 1 н/о 4/0
[Ci fib]
-19.4 -21.3 85 -22 -22 1029.1 1003.0
18 18.10 СЗ 1 н/о 4/0
[Ci fib]
-21.8 -23.6 85 -25 -25 1030.2 1003.8
21 18.10 штиль 0 н/о 3/0
[Ci fib]
-23.4 -25.3 84 -23 -23 1030.9 1004.4
00 19.10 ЮВ 1 20 км 3/0
[Ci fib]
-24.4 -26.2 85 -28 -28 1031.9 1005.3 -24.4 12
03 19.10 ЮВ 2 20 км 8/5 1000 м
[Sc Ac trans]
-22.0 -23.9 84 -28 -28 1031.9 1005.5 -24.7
06 19.10 ЮВ 2 20 км 8/3 1000 м
[Sc Ac trans Ci fib]
-17.6 -20.2 80 -23 -23 1030.7 1004.7
09 19.10 ЮВ 2 20 км 10/10 1000 м
[Sc]
-14.2 -17.7 75 -19 -19 1029.5 1003.9
12 19.10 В 1 н/о 10/10 600 м
[Cb cap]
-12.8 -16.3 75 -15 -15 1029.3 1003.8 -12.8
15 19.10 ЮВ 1 н/о 10/10 600 м
[Cb cap]
-12.6 -16.1 75 -15 -15 1029.0 1003.6
18 19.10 штиль 0 н/о 10/10 1000 м
[Sc]
-15.3 -17.3 85 -15 -15 1029.3 1003.6
21 19.10 ЮВ 1 н/о 10/10 1000 м
[Sc]
-18.0 -19.9 85 -21 -21 1029.3 1003.3
00 20.10 штиль 0 20 км 10/10 1000 м
[Sc]
-18.6 -20.2 87 -19 -19 1028.3 1002.4 -18.6 12
03 20.10 штиль 0 20 км 8/0
[Ac trans Ci sp]
-15.5 -17.4 85 -16 -15 1027.5 1002.0 -18.9
06 20.10 ЮЗ 1 20 км 4/0
[Ci fib]
-8.8 -14.1 65 -11 -10 1025.6 1000.7
09 20.10 штиль 0 20 км 4/0
[Ci fib]
-5.1 -14.2 49 -5 -5 1023.3 998.7
12 20.10 штиль 0 н/о 3/0
[Ci fib]
-12.0 -15.5 75 -12 -12 1023.5 998.3 -4.5
15 20.10 ЮВ 2 н/о 4/0
[Ac trans Ci fib]
-12.2 -14.2 85 -17 -17 1022.9 997.7
18 20.10 штиль 0 н/о 3/0
[Ci fib]
-16.0 -17.3 90 -16 -16 1021.9 996.4
21 20.10 ЮВ 1 н/о 6/0
[Ci fib]
-17.6 -18.8 90 -20 -20 1020.5 994.8
00 21.10 штиль 0 н/о 3/0
[Ci fib]
-18.8 -20.0 90 -19 -19 1019.1 993.3 -18.8 12
03 21.10 ЮВ 2 20 км 4/1 1000 м
[Sc Ci fib]
-15.5 -16.8 90 -21 -20 1017.2 991.9 -19.1
06 21.10 З 1 20 км 10/8 600 м
[Cb cap Ac As]
-11.9 -14.6 80 -14 -14 1014.4 989.4
09 21.10 ЮВ 1 20 км 10/10 600 м
[Cb cap]
-9.4 -13.4 73 -12 -12 1011.6 987.0
12 21.10 штиль 0 н/о слабый ливневой снег 10/10 600 м
[Cb cap]
-8.1 -11.7 75 -9 -9 1009.5 985.0 -8.1 0.0
15 21.10 штиль 0 н/о слабый ливневой снег 10/10 600 м
[Cb cap]
-7.7 -10.8 78 -8 -8 1007.9 983.5
18 21.10 штиль 0 н/о слабый ливневой снег 10/10 600 м
[Cb cap]
-7.8 -9.2 90 -9 -9 1007.1 982.6
21 21.10 З 2 н/о {ливн. осадки} 10/10 600 м
[Cb cap]
-7.5 -8.5 93 -12 -12 1007.0 982.6
00 22.10 н/о {ливн. осадки} н/о -6.4 -8.0 88 -9 -9 1007.1 982.8 -8.4 2 14
03 22.10 ЮВ 1 10 км слабый ливневой снег 10/10 600 м
[Cb cap]
-6.2 -7.7 89 -9 -9 1007.1 982.8
06 22.10 штиль 0 20 км в посл. час ливневой снег 8/8 600 м
[Cb cap]
-3.6 -6.5 80 -5 -4 1006.7 982.7
09 22.10 Ю 1 20 км 10/10 600 м
[Cb cap]
-1.8 -4.6 81 -4 -4 1006.3 982.5
12 22.10 штиль 0 н/о 10/10 600 м
[Cb cap]
-2.0 -4.1 86 -3 -3 1006.6 982.7 -1.8 0.0
15 22.10 штиль 0 н/о 9/9 600 м
[Cb cap]
-2.2 -3.1 94 -3 -3 1006.1 982.3
18 22.10 ЮВ 2 н/о 10/10 600 м
[Cb cap]
-2.3 -3.2 94 -6 -6 1005.2 981.4
21 22.10 В 3 н/о 10/10 600 м
[Cb cap]
-0.4 -2.8 84 -5 -5 1003.9 980.3

 

Местоположение метеостанции Тура (Эвенкия, Россия): широта 64.33 долгота 100.40 высота над уровнем моря 624 м.

В архиве по умолчанию представлена погода в Туре за последнюю неделю. Архивные данные за месяц целиком и за предыдущие месяцы, начиная с января 2011 года, Вы можете получить, выбрав интересующий диапазон дат из раскрывающегося списка и нажав кнопку "Ввод!".

Внимание! Время в таблицах - всемирное. Для получения местного времени необходимо прибавить поправку, которая в Туре равна 7 ч.

Смотрите также архив погоды в соседних городах и на ближайших метеорологических станциях:

Погода в Тембенчи (Эвенкия, Россия) (99 км)
Погода в Кербо (Эвенкия, Россия) (182 км)
Погода в Кислокане (Эвенкия, Россия) (190 км)
Погода в Стрелке-Чуне (Эвенкия, Россия) (311 км)
Погода в Тутончанах (Эвенкия, Россия) (320 км)
Погода в Муторае (Эвенкия, Россия) (334 км)
Погода в Байките (Эвенкия, Россия) (359 км)
Погода в Агате (Эвенкия, Россия) (426 км)
Погода в Усть-Камо (Эвенкия, Россия) (428 км)
Погода в Ванаваре (Эвенкия, Россия) (456 км)

Пояснения к столбцам:

Ветер - указаны скорость ветра в м/с - средняя за 10 мин, порывы в срок и между сроками (в фигурных скобках) и направление, откуда дует ветер: С - северный, СВ - северо-восточный, В - восточный, ЮВ - юго-восточный, Ю - южный, ЮЗ - юго-западный, З - западный, СЗ - северо-западный.
Видимость - горизонтальная дальность видимости в метрах или километрах. При видимости от 1 до 10 км при отсутствии осадков обычно наблюдается дымка, при ухудшении видимости до 1 км и менее - туман. В сухую погоду видимость может ухудшаться дымом, пылью или мглою.
Явления - указаны атмосферные явления, наблюдавшиеся в срок или в последний час перед сроком; фигурными скобками обозначены явления, наблюдавшиеся между сроками (за 1-3 часа до срока); квадратными скобками обозначены град или гололедные отложения с указанием их диаметра в мм.
Облачность - указаны через наклонную черту общая и нижняя облачность в баллах и высота нижней границы облаков в метрах; квадратными скобками обозначены формы облаков: Ci - перистые, Cs - перисто-слоистые, Cc - перисто-кучевые, Ac - высококучевые, As - высокослоистые, Sc - слоисто-кучевые, Ns - слоисто-дождевые, Cu - кучевые, Cb - кучево-дождевые. Подробнее классификацию облаков см. в Атласе облаков (PDF).
T - Температура воздуха - температура, измеренная на высоте 2 м над землей.
Td - Температура точки росы - температура, при понижении до которой содержащийся в воздухе водяной пар достигнет насыщения.
f - Относительная влажность воздуха - влажноcть воздуха, измеренная на высоте 2 м над землей.
Te - Эффективная температура - температура, которую ощущает одетый по сезону человек в тени. Характеристика душности погоды. При расчете учитывается влияние влажности воздуха и скорости ветра на теплоощущения человека.
Tes - Эффективная температура на солнце - температура, которую ощущает человек, с поправкой на солнечный нагрев. Характеристика знойности погоды. Зависит от высоты солнца над горизонтом, облачности и скорости ветра. Ночью, в пасмурную погоду, а также при ветре 12 м/с и более поправка равна нулю.
P - Атмосферное давление - приведенное к уровню моря атмосферное давление.
Po - Атмосферное давление - измеренное на уровне метеостанции атмосферное давление.
Tmin - Минимальная температура - минимум температуры воздуха на высоте 2 м над землей.
Tmax - Максимальная температура - максимум температуры воздуха на высоте 2 м над землей.
R - Количество осадков - Количество выпавших осадков за период времени, мм. При наведении курсора мыши на число - период времени, за который выпало указанное количество осадков.
R24 - Количество осадков - Количество выпавших осадков за 24 часа, мм.
S - Снежный покров - Высота снежного покрова, см. При наведении курсора мыши на число - состояние снежного покрова и степень покрытия местности в баллах.